Location: Newark
(43.0000°N, 1.6781°W)
Time: 07:03:54
(UTC+00:00)

XW-2C - Pass Details

Date: 04 December 2022
Orbit: 491 x 506 km, 97.5° (Epoch: 28 January)

Event Time Altitude Azimuth Distance (km) Brightness Sun altitude
Rises 18:20:40 0° 203° (SSW) 2,596 ? -19.2°
Reaches altitude 10° 18:23:17 10° 223° (SW) 1,713 ? -19.6°
Maximum altitude 18:25:50 18° 267° (W) 1,306 ? -20.1°
Drops below altitude 10° 18:28:19 10° 310° (NW) 1,697 ? -20.5°
Sets 18:31:00 0° 331° (NNW) 2,599 ? -21.0°
